Location: Newark
(46.2031°N, 3.4731°E)
Time: 06:03:01
(UTC+00:00)

Envisat - Pass Details

Date: 18 September 2019
Orbit: 764 x 766 km, 98.1° (Epoch: 19 October)

Event Time Altitude Azimuth Distance (km) Brightness Sun altitude
Rises 18:57:23 0° 202° (SSW) 3,221 6.3 -11.9°
Reaches altitude 10° 19:00:09 10° 217° (SW) 2,300 5.7 -12.4°
Maximum altitude 19:04:06 23° 268° (W) 1,605 5.6 -13.0°
Drops below altitude 10° 19:08:05 10° 320° (NW) 2,313 6.4 -13.7°
Sets 19:10:53 0° 335° (NNW) 3,244 6.9 -14.1°
